Regional Weather Roundup
Issued by NWS

Home | Current Version | Previous Version | Graphics & Text | Print | Product List | Glossary On
Versions: 1 2 3 4 5 6 7 8 9 10 11 12 13 14 15 16 17 18 19 20 21 22 23 24 25 26 27 28 29 30 31 32 33 34 35 36 37 38 39 40 41 42 43 44 45 46 47 48 49 50
000
ASUS45 KSLC 251410
RWRUT

UTAH REGIONAL WEATHER ROUNDUP
NATIONAL WEATHER SERVICE SALT LAKE CITY UT
800 AM MDT SUN SEP 25 2016

UTZ001>011-023>025-251500-

NORTHERN UTAH

CITY           SKY/WX    TMP DP  RH WIND       PRES   REMARKS
BRIGHAM CITY     N/A     42  38  86 NW3       30.47S
HILL AFB       CLEAR     44  37  76 E16       30.46R
LOGAN          CLEAR     38  37  97 CALM      30.49R
OGDEN          CLEAR     43  38  82 CALM      30.46R
PROVO AIRPORT  CLEAR     41  37  86 E5        30.47R
SALT LAKE CITY CLEAR     47  41  80 SE6       30.45R
VERNAL         CLEAR     41  36  82 CALM      30.48R
WENDOVER       PTCLDY    46  37  71 NE10      30.46R
HEBER CITY     CLEAR     32  32 100 CALM      30.50R
WEST JORDAN    CLEAR     43  40  88 S3        30.47R

$$

UTZ012>022-026-027-251500-

SOUTHERN/CENTRAL UTAH

CITY           SKY/WX    TMP DP  RH WIND       PRES   REMARKS
BLANDING       CLEAR     52  31  44 NE18G25   30.43R
BRYCE CANYON   CLEAR     31  28  89 W7        30.48R WCI  24
CEDAR CITY     PTCLDY    38  33  82 NE3       30.42R
DELTA          CLEAR     43  37  81 N5        30.45R
MILFORD        CLEAR     42  38  85 N10       30.42R
MOAB/CYNLANDS  CLEAR     52  36  54 N6        30.40R
PRICE          CLEAR     43  33  68 CALM      30.46R
ST GEORGE      SUNNY     59  32  36 E8        30.32R

$$

REGIONAL REPORTS     COLORADO/ARIZONA

CITY           SKY/WX    TMP DP  RH WIND       PRES   REMARKS
CRAIG, CO      FOG       36  34  92 CALM      30.50S VSB<1/4
GRAND JUNCTION CLEAR     46  38  73 SE6       30.43R
RIFLE          CLOUDY    41  39  93 E3        30.49R
MONTROSE       CLOUDY    41  36  82 SE8       30.49R
CORTEZ         CLEAR     37  33  85 CALM      30.38R
PAGE, AZ       CLEAR     59  36  42 NW3       30.35R
GRAND CANYON   CLEAR     49  33  54 NE17      30.39R
KINGMAN        CLEAR     52  32  46 E9        30.24R
FLAGSTAFF      CLEAR     46  34  62 NE16G25   30.34R

$$

REGIONAL REPORTS    NEVADA/IDAHO/WYOMING

CITY           SKY/WX    TMP DP  RH WIND       PRES   REMARKS
LAS VEGAS, NV  CLEAR     69  33  26 N9        30.25R
ELY            PTCLDY    29  26  89 S7        30.50R WCI  22
ELKO           CLEAR     37  32  82 E3        30.49R
POCATELLO, ID  CLOUDY    36  34  92 N5        30.49R WCI  32
BURLEY         CLEAR     36  33  89 SW6       30.47R WCI  31
EVANSTON, WY   CLOUDY    38  28  67 CALM      30.51R
ROCK SPRINGS   CLOUDY    36  34  92 SW8       30.49R WCI  30

$$



USA.gov is the U.S. government's official web portal to all federal, state and local government web resources and services.